sat.trackr.live / text

‹ back to catalog

LEONAV-1

NORAD 69937 · 2026-156BW

PAYLOAD ACTIVE UNKNOWN

§ Identity

Operator
Country
UAE
Launch date
2026-07-07
Launch site
AFWTR
Launch vehicle
Mass (kg)
RCS (m²)

External: N2YO · Heavens-Above · Gunter

§ Orbital elements

Epoch: 2026-09-20T03:30:33.541056Z

Period
96.45 min
Inclination
97.7428°
Eccentricity
0.0009143
Mean motion
14.92961943 rev/d
Perigee alt
582.3 km
Apogee alt
595.1 km
Semi-major
6,966.8 km
B*
1.8702e-4
RAAN
162.4449°
Arg perigee
266.3684°
Mean anomaly
93.6490°
Rev number
1,116

§ Raw data

LEONAV-11 69937U 26156BW  26263.14622154  .00001887  00000+0  18702-3 0  99922 69937  97.7428 162.4449 0009143 266.3684  93.6490 14.92961943 11163

JSON: /api/v1/satellites/69937 · /tle

For live sub-satellite position, see the globe view (requires WebGL).

§ Visibility from observer

Set your observer location to see the next 7 days of passes ≥ 10°. The values pass through the URL so the page stays shareable.

No JS? Fill the form by hand. The geolocation button needs JavaScript.